Time,TemperatureF,DewpointF,PressureIn,WindDirection,WindDirectionDegrees,WindSpeedMPH,WindSpeedGustMPH,Humidity,HourlyPrecipIn,Conditions,Clouds,dailyrainin,SoftwareType,DateUTC
2013-02-10 00:00:00,18.1,4.3,30.36,North,-999,-999.0,-999.0,54,-99.99,,,-99.99,,2013-02-10 05:00:00,
2013-02-10 00:02:00,18.1,4.3,30.36,North,-999,-999.0,-999.0,54,-99.99,,,-99.99,,2013-02-10 05:02:00,
2013-02-10 00:04:00,17.8,4.0,30.36,North,-999,-999.0,-999.0,54,-99.99,,,-99.99,,2013-02-10 05:04:00,
2013-02-10 00:09:00,17.6,4.2,30.36,North,-999,-999.0,-999.0,55,-99.99,,,-99.99,,2013-02-10 05:09:00,
2013-02-10 00:15:00,17.6,3.8,30.36,North,-999,-999.0,-999.0,54,-99.99,,,-99.99,,2013-02-10 05:15:00,
2013-02-10 00:20:00,17.6,3.8,30.36,North,-999,-999.0,-999.0,54,-99.99,,,-99.99,,2013-02-10 05:20:00,
2013-02-10 00:25:00,17.6,3.8,30.36,North,-999,-999.0,-999.0,54,-99.99,,,-99.99,,2013-02-10 05:25:00,
2013-02-10 00:30:00,17.4,3.7,30.36,North,-999,-999.0,-999.0,54,-99.99,,,-99.99,,2013-02-10 05:30:00,
2013-02-10 00:36:00,17.4,3.7,30.36,North,-999,-999.0,-999.0,54,-99.99,,,-99.99,,2013-02-10 05:36:00,
2013-02-10 00:41:00,17.1,3.3,30.36,North,-999,-999.0,-999.0,54,-99.99,,,-99.99,,2013-02-10 05:41:00,
2013-02-10 00:46:00,17.1,3.3,30.36,North,-999,-999.0,-999.0,54,-99.99,,,-99.99,,2013-02-10 05:46:00,
2013-02-10 00:52:00,17.1,3.3,30.36,North,-999,-999.0,-999.0,54,-99.99,,,-99.99,,2013-02-10 05:52:00,
2013-02-10 00:57:00,16.9,3.2,30.36,North,-999,-999.0,-999.0,54,-99.99,,,-99.99,,2013-02-10 05:57:00,
2013-02-10 01:03:00,16.9,3.2,30.36,North,-999,-999.0,-999.0,54,-99.99,,,-99.99,,2013-02-10 06:03:00,
2013-02-10 01:08:00,16.7,3.0,30.36,North,-999,-999.0,-999.0,54,-99.99,,,-99.99,,2013-02-10 06:08:00,
2013-02-10 01:13:00,16.7,3.0,30.36,North,-999,-999.0,-999.0,54,-99.99,,,-99.99,,2013-02-10 06:13:00,
2013-02-10 01:18:00,16.7,3.0,30.36,North,-999,-999.0,-999.0,54,-99.99,,,-99.99,,2013-02-10 06:18:00,
2013-02-10 01:24:00,16.5,2.8,30.36,North,-999,-999.0,-999.0,54,-99.99,,,-99.99,,2013-02-10 06:24:00,
2013-02-10 01:29:00,16.5,2.8,30.36,North,-999,-999.0,-999.0,54,-99.99,,,-99.99,,2013-02-10 06:29:00,
2013-02-10 01:35:00,16.5,2.8,30.36,North,-999,-999.0,-999.0,54,-99.99,,,-99.99,,2013-02-10 06:35:00,
2013-02-10 01:40:00,16.3,2.7,30.36,North,-999,-999.0,-999.0,54,-99.99,,,-99.99,,2013-02-10 06:40:00,
2013-02-10 01:45:00,16.3,2.7,30.36,North,-999,-999.0,-999.0,54,-99.99,,,-99.99,,2013-02-10 06:45:00,
2013-02-10 01:50:00,16.3,2.7,30.33,North,-999,-999.0,-999.0,54,-99.99,,,-99.99,,2013-02-10 06:50:00,
2013-02-10 01:56:00,16.3,2.7,30.33,North,-999,-999.0,-999.0,54,-99.99,,,-99.99,,2013-02-10 06:56:00,
2013-02-10 02:01:00,16.3,2.7,30.33,North,-999,-999.0,-999.0,54,-99.99,,,-99.99,,2013-02-10 07:01:00,
2013-02-10 02:06:00,16.3,2.7,30.36,North,-999,-999.0,-999.0,54,-99.99,,,-99.99,,2013-02-10 07:06:00,
2013-02-10 02:12:00,16.2,2.5,30.36,North,-999,-999.0,-999.0,54,-99.99,,,-99.99,,2013-02-10 07:12:00,
2013-02-10 02:17:00,16.2,2.5,30.36,North,-999,-999.0,-999.0,54,-99.99,,,-99.99,,2013-02-10 07:17:00,
2013-02-10 02:23:00,16.2,2.5,30.36,North,-999,-999.0,-999.0,54,-99.99,,,-99.99,,2013-02-10 07:23:00,
2013-02-10 02:28:00,16.2,2.5,30.36,North,-999,-999.0,-999.0,54,-99.99,,,-99.99,,2013-02-10 07:28:00,
2013-02-10 02:33:00,16.0,2.3,30.36,North,-999,-999.0,-999.0,54,-99.99,,,-99.99,,2013-02-10 07:33:00,
2013-02-10 02:38:00,15.8,2.2,30.36,North,-999,-999.0,-999.0,54,-99.99,,,-99.99,,2013-02-10 07:38:00,
2013-02-10 02:43:00,15.6,2.0,30.36,North,-999,-999.0,-999.0,54,-99.99,,,-99.99,,2013-02-10 07:43:00,
2013-02-10 02:49:00,15.6,2.0,30.36,North,-999,-999.0,-999.0,54,-99.99,,,-99.99,,2013-02-10 07:49:00,
2013-02-10 02:55:00,15.4,1.8,30.36,North,-999,-999.0,-999.0,54,-99.99,,,-99.99,,2013-02-10 07:55:00,
2013-02-10 03:00:00,15.4,1.8,30.36,North,-999,-999.0,-999.0,54,-99.99,,,-99.99,,2013-02-10 08:00:00,
2013-02-10 03:05:00,15.3,1.7,30.36,North,-999,-999.0,-999.0,54,-99.99,,,-99.99,,2013-02-10 08:05:00,
2013-02-10 03:10:00,15.3,1.7,30.36,North,-999,-999.0,-999.0,54,-99.99,,,-99.99,,2013-02-10 08:10:00,
2013-02-10 03:17:00,15.1,1.5,30.36,North,-999,-999.0,-999.0,54,-99.99,,,-99.99,,2013-02-10 08:17:00,
2013-02-10 03:22:00,14.9,1.3,30.33,North,-999,-999.0,-999.0,54,-99.99,,,-99.99,,2013-02-10 08:22:00,
2013-02-10 03:27:00,14.9,1.3,30.33,North,-999,-999.0,-999.0,54,-99.99,,,-99.99,,2013-02-10 08:27:00,
2013-02-10 03:32:00,14.9,1.3,30.33,North,-999,-999.0,-999.0,54,-99.99,,,-99.99,,2013-02-10 08:32:00,
2013-02-10 03:37:00,14.5,1.0,30.33,North,-999,-999.0,-999.0,54,-99.99,,,-99.99,,2013-02-10 08:37:00,
2013-02-10 03:43:00,14.5,1.0,30.33,North,-999,-999.0,-999.0,54,-99.99,,,-99.99,,2013-02-10 08:43:00,
2013-02-10 03:48:00,14.4,0.8,30.33,North,-999,-999.0,-999.0,54,-99.99,,,-99.99,,2013-02-10 08:48:00,
2013-02-10 03:53:00,14.4,0.8,30.33,North,-999,-999.0,-999.0,54,-99.99,,,-99.99,,2013-02-10 08:53:00,
2013-02-10 03:58:00,14.4,0.8,30.33,North,-999,-999.0,-999.0,54,-99.99,,,-99.99,,2013-02-10 08:58:00,
2013-02-10 04:03:00,14.4,0.8,30.33,North,-999,-999.0,-999.0,54,-99.99,,,-99.99,,2013-02-10 09:03:00,
2013-02-10 04:09:00,14.4,0.8,30.33,North,-999,-999.0,-999.0,54,-99.99,,,-99.99,,2013-02-10 09:09:00,
2013-02-10 04:14:00,14.4,0.8,30.33,North,-999,-999.0,-999.0,54,-99.99,,,-99.99,,2013-02-10 09:14:00,
2013-02-10 04:19:00,14.2,0.6,30.33,North,-999,-999.0,-999.0,54,-99.99,,,-99.99,,2013-02-10 09:19:00,
2013-02-10 04:24:00,14.4,0.8,30.33,North,-999,-999.0,-999.0,54,-99.99,,,-99.99,,2013-02-10 09:24:00,
2013-02-10 04:29:00,14.2,0.6,30.33,North,-999,-999.0,-999.0,54,-99.99,,,-99.99,,2013-02-10 09:29:00,
2013-02-10 04:35:00,14.2,0.6,30.33,North,-999,-999.0,-999.0,54,-99.99,,,-99.99,,2013-02-10 09:35:00,
2013-02-10 04:40:00,14.0,0.5,30.33,North,-999,-999.0,-999.0,54,-99.99,,,-99.99,,2013-02-10 09:40:00,
2013-02-10 04:45:00,13.8,0.3,30.33,North,-999,-999.0,-999.0,54,-99.99,,,-99.99,,2013-02-10 09:45:00,
2013-02-10 04:50:00,13.6,0.1,30.36,North,-999,-999.0,-999.0,54,-99.99,,,-99.99,,2013-02-10 09:50:00,
2013-02-10 04:55:00,13.5,0.0,30.36,North,-999,-999.0,-999.0,54,-99.99,,,-99.99,,2013-02-10 09:55:00,
2013-02-10 05:01:00,13.5,0.0,30.36,North,-999,-999.0,-999.0,54,-99.99,,,-99.99,,2013-02-10 10:01:00,
2013-02-10 05:06:00,13.5,0.0,30.36,North,-999,-999.0,-999.0,54,-99.99,,,-99.99,,2013-02-10 10:06:00,
2013-02-10 05:11:00,13.5,0.0,30.36,North,-999,-999.0,-999.0,54,-99.99,,,-99.99,,2013-02-10 10:11:00,
2013-02-10 05:16:00,13.1,-0.4,30.36,North,-999,-999.0,-999.0,54,-99.99,,,-99.99,,2013-02-10 10:16:00,
2013-02-10 05:21:00,12.9,-0.5,30.33,North,-999,-999.0,-999.0,54,-99.99,,,-99.99,,2013-02-10 10:21:00,
2013-02-10 05:27:00,12.9,-0.5,30.33,North,-999,-999.0,-999.0,54,-99.99,,,-99.99,,2013-02-10 10:27:00,
2013-02-10 05:32:00,12.7,-0.7,30.33,North,-999,-999.0,-999.0,54,-99.99,,,-99.99,,2013-02-10 10:32:00,
2013-02-10 05:37:00,12.6,-0.9,30.33,North,-999,-999.0,-999.0,54,-99.99,,,-99.99,,2013-02-10 10:37:00,
2013-02-10 05:42:00,12.6,-0.9,30.33,North,-999,-999.0,-999.0,54,-99.99,,,-99.99,,2013-02-10 10:42:00,
2013-02-10 05:47:00,12.6,-0.9,30.33,North,-999,-999.0,-999.0,54,-99.99,,,-99.99,,2013-02-10 10:47:00,
2013-02-10 05:53:00,12.6,-0.9,30.33,North,-999,-999.0,-999.0,54,-99.99,,,-99.99,,2013-02-10 10:53:00,
2013-02-10 05:58:00,12.4,-1.0,30.33,North,-999,-999.0,-999.0,54,-99.99,,,-99.99,,2013-02-10 10:58:00,
2013-02-10 06:03:00,12.2,-1.2,30.33,North,-999,-999.0,-999.0,54,-99.99,,,-99.99,,2013-02-10 11:03:00,
2013-02-10 06:08:00,12.0,-1.4,30.33,North,-999,-999.0,-999.0,54,-99.99,,,-99.99,,2013-02-10 11:08:00,
2013-02-10 06:14:00,11.8,-1.5,30.33,North,-999,-999.0,-999.0,54,-99.99,,,-99.99,,2013-02-10 11:14:00,
2013-02-10 06:19:00,11.8,-1.5,30.33,North,-999,-999.0,-999.0,54,-99.99,,,-99.99,,2013-02-10 11:19:00,
2013-02-10 06:24:00,12.0,-1.4,30.33,North,-999,-999.0,-999.0,54,-99.99,,,-99.99,,2013-02-10 11:24:00,
2013-02-10 06:30:00,11.8,-1.5,30.33,North,-999,-999.0,-999.0,54,-99.99,,,-99.99,,2013-02-10 11:30:00,
2013-02-10 06:35:00,11.8,-1.5,30.33,North,-999,-999.0,-999.0,54,-99.99,,,-99.99,,2013-02-10 11:35:00,
2013-02-10 06:40:00,11.8,-1.5,30.33,North,-999,-999.0,-999.0,54,-99.99,,,-99.99,,2013-02-10 11:40:00,
2013-02-10 06:45:00,11.7,-1.7,30.33,North,-999,-999.0,-999.0,54,-99.99,,,-99.99,,2013-02-10 11:45:00,
2013-02-10 06:50:00,11.7,-1.7,30.33,North,-999,-999.0,-999.0,54,-99.99,,,-99.99,,2013-02-10 11:50:00,
2013-02-10 06:56:00,11.3,-2.0,30.33,North,-999,-999.0,-999.0,54,-99.99,,,-99.99,,2013-02-10 11:56:00,
2013-02-10 07:03:00,11.7,-1.7,30.36,North,-999,-999.0,-999.0,54,-99.99,,,-99.99,,2013-02-10 12:03:00,
2013-02-10 07:09:00,11.3,-2.0,30.36,North,-999,-999.0,-999.0,54,-99.99,,,-99.99,,2013-02-10 12:09:00,
2013-02-10 07:14:00,11.3,-2.0,30.36,North,-999,-999.0,-999.0,54,-99.99,,,-99.99,,2013-02-10 12:14:00,
2013-02-10 07:19:00,11.3,-2.0,30.33,North,-999,-999.0,-999.0,54,-99.99,,,-99.99,,2013-02-10 12:19:00,
2013-02-10 07:24:00,11.5,-1.9,30.33,North,-999,-999.0,-999.0,54,-99.99,,,-99.99,,2013-02-10 12:24:00,
2013-02-10 07:29:00,11.3,-2.0,30.33,North,-999,-999.0,-999.0,54,-99.99,,,-99.99,,2013-02-10 12:29:00,
2013-02-10 07:35:00,11.3,-2.0,30.36,North,-999,-999.0,-999.0,54,-99.99,,,-99.99,,2013-02-10 12:35:00,
2013-02-10 07:40:00,11.3,-2.0,30.36,North,-999,-999.0,-999.0,54,-99.99,,,-99.99,,2013-02-10 12:40:00,
2013-02-10 07:45:00,11.3,-2.0,30.36,North,-999,-999.0,-999.0,54,-99.99,,,-99.99,,2013-02-10 12:45:00,
2013-02-10 07:50:00,11.3,-2.0,30.36,North,-999,-999.0,-999.0,54,-99.99,,,-99.99,,2013-02-10 12:50:00,
2013-02-10 07:56:00,11.7,-1.7,30.36,North,-999,-999.0,-999.0,54,-99.99,,,-99.99,,2013-02-10 12:56:00,
2013-02-10 08:01:00,11.7,-1.7,30.36,North,-999,-999.0,-999.0,54,-99.99,,,-99.99,,2013-02-10 13:01:00,
2013-02-10 08:07:00,11.8,-1.5,30.36,North,-999,-999.0,-999.0,54,-99.99,,,-99.99,,2013-02-10 13:07:00,
2013-02-10 08:12:00,12.0,-1.4,30.36,North,-999,-999.0,-999.0,54,-99.99,,,-99.99,,2013-02-10 13:12:00,
2013-02-10 08:17:00,12.9,-0.5,30.36,North,-999,-999.0,-999.0,54,-99.99,,,-99.99,,2013-02-10 13:17:00,
2013-02-10 08:23:00,17.4,2.0,30.36,North,-999,-999.0,-999.0,50,-99.99,,,-99.99,,2013-02-10 13:23:00,
2013-02-10 08:28:00,16.3,0.6,30.36,North,-999,-999.0,-999.0,49,-99.99,,,-99.99,,2013-02-10 13:28:00,
2013-02-10 08:33:00,15.3,-0.4,30.36,North,-999,-999.0,-999.0,49,-99.99,,,-99.99,,2013-02-10 13:33:00,
2013-02-10 08:38:00,14.9,-0.3,30.36,North,-999,-999.0,-999.0,50,-99.99,,,-99.99,,2013-02-10 13:38:00,
2013-02-10 08:44:00,15.1,-0.1,30.36,North,-999,-999.0,-999.0,50,-99.99,,,-99.99,,2013-02-10 13:44:00,
2013-02-10 08:49:00,16.5,1.6,30.36,North,-999,-999.0,-999.0,51,-99.99,,,-99.99,,2013-02-10 13:49:00,
2013-02-10 08:54:00,17.1,1.7,30.36,North,-999,-999.0,-999.0,50,-99.99,,,-99.99,,2013-02-10 13:54:00,
2013-02-10 09:00:00,18.3,2.9,30.36,North,-999,-999.0,-999.0,50,-99.99,,,-99.99,,2013-02-10 14:00:00,
2013-02-10 09:05:00,18.5,3.0,30.36,North,-999,-999.0,-999.0,50,-99.99,,,-99.99,,2013-02-10 14:05:00,
2013-02-10 09:10:00,17.6,2.2,30.36,North,-999,-999.0,-999.0,50,-99.99,,,-99.99,,2013-02-10 14:10:00,
2013-02-10 09:15:00,17.6,2.6,30.36,North,-999,-999.0,-999.0,51,-99.99,,,-99.99,,2013-02-10 14:15:00,
2013-02-10 09:21:00,17.8,2.8,30.33,North,-999,-999.0,-999.0,51,-99.99,,,-99.99,,2013-02-10 14:21:00,
2013-02-10 09:26:00,17.8,3.2,30.33,North,-999,-999.0,-999.0,52,-99.99,,,-99.99,,2013-02-10 14:26:00,
2013-02-10 09:32:00,18.1,3.5,30.33,North,-999,-999.0,-999.0,52,-99.99,,,-99.99,,2013-02-10 14:32:00,
2013-02-10 09:37:00,18.5,4.3,30.33,North,-999,-999.0,-999.0,53,-99.99,,,-99.99,,2013-02-10 14:37:00,
2013-02-10 09:42:00,19.0,4.8,30.33,North,-999,-999.0,-999.0,53,-99.99,,,-99.99,,2013-02-10 14:42:00,
2013-02-10 09:47:00,19.2,5.4,30.33,North,-999,-999.0,-999.0,54,-99.99,,,-99.99,,2013-02-10 14:47:00,
2013-02-10 09:52:00,19.6,5.3,30.33,North,-999,-999.0,-999.0,53,-99.99,,,-99.99,,2013-02-10 14:52:00,
2013-02-10 09:58:00,19.8,5.9,30.33,North,-999,-999.0,-999.0,54,-99.99,,,-99.99,,2013-02-10 14:58:00,
2013-02-10 10:03:00,20.1,6.2,30.33,North,-999,-999.0,-999.0,54,-99.99,,,-99.99,,2013-02-10 15:03:00,
2013-02-10 10:08:00,20.3,6.4,30.33,North,-999,-999.0,-999.0,54,-99.99,,,-99.99,,2013-02-10 15:08:00,
2013-02-10 10:13:00,20.7,6.7,30.33,North,-999,-999.0,-999.0,54,-99.99,,,-99.99,,2013-02-10 15:13:00,
2013-02-10 10:19:00,21.0,7.0,30.33,North,-999,-999.0,-999.0,54,-99.99,,,-99.99,,2013-02-10 15:19:00,
2013-02-10 10:24:00,21.6,7.5,30.33,North,-999,-999.0,-999.0,54,-99.99,,,-99.99,,2013-02-10 15:24:00,
2013-02-10 10:30:00,22.1,8.0,30.33,North,-999,-999.0,-999.0,54,-99.99,,,-99.99,,2013-02-10 15:30:00,
2013-02-10 10:35:00,22.6,8.6,30.30,North,-999,-999.0,-999.0,54,-99.99,,,-99.99,,2013-02-10 15:35:00,
2013-02-10 10:41:00,23.2,9.1,30.30,North,-999,-999.0,-999.0,54,-99.99,,,-99.99,,2013-02-10 15:41:00,
2013-02-10 10:46:00,23.7,9.6,30.30,North,-999,-999.0,-999.0,54,-99.99,,,-99.99,,2013-02-10 15:46:00,
2013-02-10 10:51:00,24.4,10.2,30.30,North,-999,-999.0,-999.0,54,-99.99,,,-99.99,,2013-02-10 15:51:00,
2013-02-10 10:56:00,25.0,10.3,30.30,North,-999,-999.0,-999.0,53,-99.99,,,-99.99,,2013-02-10 15:56:00,
2013-02-10 11:01:00,25.5,10.8,30.30,North,-999,-999.0,-999.0,53,-99.99,,,-99.99,,2013-02-10 16:01:00,
2013-02-10 11:07:00,26.1,11.3,30.30,North,-999,-999.0,-999.0,53,-99.99,,,-99.99,,2013-02-10 16:07:00,
2013-02-10 11:12:00,26.2,11.5,30.30,North,-999,-999.0,-999.0,53,-99.99,,,-99.99,,2013-02-10 16:12:00,
2013-02-10 11:17:00,26.4,11.7,30.30,North,-999,-999.0,-999.0,53,-99.99,,,-99.99,,2013-02-10 16:17:00,
2013-02-10 11:23:00,26.4,11.7,30.27,North,-999,-999.0,-999.0,53,-99.99,,,-99.99,,2013-02-10 16:23:00,
2013-02-10 11:28:00,26.6,11.8,30.27,North,-999,-999.0,-999.0,53,-99.99,,,-99.99,,2013-02-10 16:28:00,
2013-02-10 11:33:00,26.6,11.8,30.27,North,-999,-999.0,-999.0,53,-99.99,,,-99.99,,2013-02-10 16:33:00,
2013-02-10 11:38:00,27.0,12.2,30.27,North,-999,-999.0,-999.0,53,-99.99,,,-99.99,,2013-02-10 16:38:00,
2013-02-10 11:44:00,27.3,12.9,30.27,North,-999,-999.0,-999.0,54,-99.99,,,-99.99,,2013-02-10 16:44:00,
2013-02-10 11:49:00,27.5,13.1,30.27,North,-999,-999.0,-999.0,54,-99.99,,,-99.99,,2013-02-10 16:49:00,
2013-02-10 11:55:00,27.9,13.4,30.27,North,-999,-999.0,-999.0,54,-99.99,,,-99.99,,2013-02-10 16:55:00,
2013-02-10 12:00:00,28.0,14.0,30.27,North,-999,-999.0,-999.0,55,-99.99,,,-99.99,,2013-02-10 17:00:00,
2013-02-10 12:05:00,28.2,14.2,30.24,North,-999,-999.0,-999.0,55,-99.99,,,-99.99,,2013-02-10 17:05:00,
2013-02-10 12:10:00,28.0,14.0,30.24,North,-999,-999.0,-999.0,55,-99.99,,,-99.99,,2013-02-10 17:10:00,
2013-02-10 12:15:00,28.4,14.3,30.24,North,-999,-999.0,-999.0,55,-99.99,,,-99.99,,2013-02-10 17:15:00,
2013-02-10 12:21:00,28.6,14.5,30.24,North,-999,-999.0,-999.0,55,-99.99,,,-99.99,,2013-02-10 17:21:00,
2013-02-10 12:26:00,28.8,14.7,30.24,North,-999,-999.0,-999.0,55,-99.99,,,-99.99,,2013-02-10 17:26:00,
2013-02-10 12:31:00,28.6,14.5,30.24,North,-999,-999.0,-999.0,55,-99.99,,,-99.99,,2013-02-10 17:31:00,
2013-02-10 12:36:00,28.6,14.5,30.24,North,-999,-999.0,-999.0,55,-99.99,,,-99.99,,2013-02-10 17:36:00,
2013-02-10 12:41:00,28.6,14.5,30.24,North,-999,-999.0,-999.0,55,-99.99,,,-99.99,,2013-02-10 17:41:00,
2013-02-10 12:47:00,28.6,14.5,30.24,North,-999,-999.0,-999.0,55,-99.99,,,-99.99,,2013-02-10 17:47:00,
2013-02-10 12:52:00,29.1,15.0,30.22,North,-999,-999.0,-999.0,55,-99.99,,,-99.99,,2013-02-10 17:52:00,
2013-02-10 12:57:00,29.3,15.2,30.22,North,-999,-999.0,-999.0,55,-99.99,,,-99.99,,2013-02-10 17:57:00,
2013-02-10 13:03:00,29.5,15.4,30.22,North,-999,-999.0,-999.0,55,-99.99,,,-99.99,,2013-02-10 18:03:00,
2013-02-10 13:08:00,29.5,15.4,30.22,North,-999,-999.0,-999.0,55,-99.99,,,-99.99,,2013-02-10 18:08:00,
2013-02-10 13:13:00,29.5,15.4,30.22,North,-999,-999.0,-999.0,55,-99.99,,,-99.99,,2013-02-10 18:13:00,
2013-02-10 13:19:00,29.7,15.5,30.24,North,-999,-999.0,-999.0,55,-99.99,,,-99.99,,2013-02-10 18:19:00,
2013-02-10 13:24:00,29.7,15.9,30.24,North,-999,-999.0,-999.0,56,-99.99,,,-99.99,,2013-02-10 18:24:00,
2013-02-10 13:30:00,30.0,16.3,30.24,North,-999,-999.0,-999.0,56,-99.99,,,-99.99,,2013-02-10 18:30:00,
2013-02-10 13:35:00,30.2,16.4,30.22,North,-999,-999.0,-999.0,56,-99.99,,,-99.99,,2013-02-10 18:35:00,
2013-02-10 13:40:00,30.6,16.8,30.22,North,-999,-999.0,-999.0,56,-99.99,,,-99.99,,2013-02-10 18:40:00,
2013-02-10 13:45:00,30.4,16.6,30.22,North,-999,-999.0,-999.0,56,-99.99,,,-99.99,,2013-02-10 18:45:00,
2013-02-10 13:50:00,30.7,17.4,30.19,North,-999,-999.0,-999.0,57,-99.99,,,-99.99,,2013-02-10 18:50:00,
2013-02-10 13:56:00,31.1,17.7,30.19,North,-999,-999.0,-999.0,57,-99.99,,,-99.99,,2013-02-10 18:56:00,
2013-02-10 14:01:00,31.1,17.7,30.19,North,-999,-999.0,-999.0,57,-99.99,,,-99.99,,2013-02-10 19:01:00,
2013-02-10 14:07:00,31.5,18.0,30.19,North,-999,-999.0,-999.0,57,-99.99,,,-99.99,,2013-02-10 19:07:00,
2013-02-10 14:12:00,31.5,18.0,30.19,North,-999,-999.0,-999.0,57,-99.99,,,-99.99,,2013-02-10 19:12:00,
2013-02-10 14:17:00,31.6,18.2,30.19,North,-999,-999.0,-999.0,57,-99.99,,,-99.99,,2013-02-10 19:17:00,
2013-02-10 14:23:00,32.0,18.5,30.19,North,-999,-999.0,-999.0,57,-99.99,,,-99.99,,2013-02-10 19:23:00,
2013-02-10 14:28:00,32.0,18.5,30.19,North,-999,-999.0,-999.0,57,-99.99,,,-99.99,,2013-02-10 19:28:00,
2013-02-10 14:33:00,32.2,18.3,30.19,North,-999,-999.0,-999.0,56,-99.99,,,-99.99,,2013-02-10 19:33:00,
2013-02-10 14:38:00,32.2,18.3,30.19,North,-999,-999.0,-999.0,56,-99.99,,,-99.99,,2013-02-10 19:38:00,
2013-02-10 14:44:00,32.4,18.5,30.19,North,-999,-999.0,-999.0,56,-99.99,,,-99.99,,2013-02-10 19:44:00,
2013-02-10 14:50:00,32.5,18.6,30.19,North,-999,-999.0,-999.0,56,-99.99,,,-99.99,,2013-02-10 19:50:00,
2013-02-10 14:55:00,32.5,19.0,30.19,North,-999,-999.0,-999.0,57,-99.99,,,-99.99,,2013-02-10 19:55:00,
2013-02-10 15:00:00,32.5,19.0,30.19,North,-999,-999.0,-999.0,57,-99.99,,,-99.99,,2013-02-10 20:00:00,
2013-02-10 15:05:00,32.5,19.0,30.19,North,-999,-999.0,-999.0,57,-99.99,,,-99.99,,2013-02-10 20:05:00,
2013-02-10 15:11:00,32.7,19.2,30.19,North,-999,-999.0,-999.0,57,-99.99,,,-99.99,,2013-02-10 20:11:00,
2013-02-10 15:16:00,32.7,19.2,30.19,North,-999,-999.0,-999.0,57,-99.99,,,-99.99,,2013-02-10 20:16:00,
2013-02-10 15:21:00,32.7,19.2,30.16,North,-999,-999.0,-999.0,57,-99.99,,,-99.99,,2013-02-10 20:21:00,
2013-02-10 15:27:00,32.9,19.4,30.16,North,-999,-999.0,-999.0,57,-99.99,,,-99.99,,2013-02-10 20:27:00,
2013-02-10 15:32:00,32.9,19.4,30.16,North,-999,-999.0,-999.0,57,-99.99,,,-99.99,,2013-02-10 20:32:00,
2013-02-10 15:37:00,33.1,19.5,30.16,North,-999,-999.0,-999.0,57,-99.99,,,-99.99,,2013-02-10 20:37:00,
2013-02-10 15:44:00,33.1,19.5,30.16,North,-999,-999.0,-999.0,57,-99.99,,,-99.99,,2013-02-10 20:44:00,
2013-02-10 15:49:00,33.3,19.7,30.16,North,-999,-999.0,-999.0,57,-99.99,,,-99.99,,2013-02-10 20:49:00,
2013-02-10 15:54:00,33.3,20.1,30.16,North,-999,-999.0,-999.0,58,-99.99,,,-99.99,,2013-02-10 20:54:00,
2013-02-10 15:59:00,33.4,20.3,30.16,North,-999,-999.0,-999.0,58,-99.99,,,-99.99,,2013-02-10 20:59:00,
2013-02-10 16:04:00,33.6,20.5,30.16,North,-999,-999.0,-999.0,58,-99.99,,,-99.99,,2013-02-10 21:04:00,
2013-02-10 16:10:00,33.6,20.5,30.16,North,-999,-999.0,-999.0,58,-99.99,,,-99.99,,2013-02-10 21:10:00,
2013-02-10 16:15:00,33.6,20.5,30.16,North,-999,-999.0,-999.0,58,-99.99,,,-99.99,,2013-02-10 21:15:00,
2013-02-10 16:21:00,33.6,20.5,30.16,North,-999,-999.0,-999.0,58,-99.99,,,-99.99,,2013-02-10 21:21:00,
2013-02-10 16:26:00,33.4,20.3,30.16,North,-999,-999.0,-999.0,58,-99.99,,,-99.99,,2013-02-10 21:26:00,
2013-02-10 16:32:00,33.4,20.3,30.16,North,-999,-999.0,-999.0,58,-99.99,,,-99.99,,2013-02-10 21:32:00,
2013-02-10 16:37:00,33.3,20.1,30.13,North,-999,-999.0,-999.0,58,-99.99,,,-99.99,,2013-02-10 21:37:00,
2013-02-10 16:42:00,33.3,20.1,30.13,North,-999,-999.0,-999.0,58,-99.99,,,-99.99,,2013-02-10 21:42:00,
2013-02-10 16:47:00,33.3,20.1,30.13,North,-999,-999.0,-999.0,58,-99.99,,,-99.99,,2013-02-10 21:47:00,
2013-02-10 16:52:00,33.1,20.0,30.13,North,-999,-999.0,-999.0,58,-99.99,,,-99.99,,2013-02-10 21:52:00,
2013-02-10 16:58:00,33.1,20.0,30.13,North,-999,-999.0,-999.0,58,-99.99,,,-99.99,,2013-02-10 21:58:00,
2013-02-10 17:03:00,33.1,20.0,30.13,North,-999,-999.0,-999.0,58,-99.99,,,-99.99,,2013-02-10 22:03:00,
2013-02-10 17:08:00,32.9,19.8,30.13,North,-999,-999.0,-999.0,58,-99.99,,,-99.99,,2013-02-10 22:08:00,
2013-02-10 17:13:00,32.9,19.8,30.13,North,-999,-999.0,-999.0,58,-99.99,,,-99.99,,2013-02-10 22:13:00,
2013-02-10 17:18:00,32.7,20.0,30.13,North,-999,-999.0,-999.0,59,-99.99,,,-99.99,,2013-02-10 22:18:00,
2013-02-10 17:24:00,32.7,20.0,30.13,North,-999,-999.0,-999.0,59,-99.99,,,-99.99,,2013-02-10 22:24:00,
2013-02-10 17:29:00,32.7,20.0,30.13,North,-999,-999.0,-999.0,59,-99.99,,,-99.99,,2013-02-10 22:29:00,
2013-02-10 17:35:00,32.5,19.8,30.13,North,-999,-999.0,-999.0,59,-99.99,,,-99.99,,2013-02-10 22:35:00,
2013-02-10 17:40:00,32.4,19.7,30.13,North,-999,-999.0,-999.0,59,-99.99,,,-99.99,,2013-02-10 22:40:00,
2013-02-10 17:45:00,32.4,20.1,30.13,North,-999,-999.0,-999.0,60,-99.99,,,-99.99,,2013-02-10 22:45:00,
2013-02-10 17:50:00,32.2,19.9,30.13,North,-999,-999.0,-999.0,60,-99.99,,,-99.99,,2013-02-10 22:50:00,
2013-02-10 17:56:00,32.2,19.9,30.13,North,-999,-999.0,-999.0,60,-99.99,,,-99.99,,2013-02-10 22:56:00,
2013-02-10 18:01:00,32.0,19.7,30.13,North,-999,-999.0,-999.0,60,-99.99,,,-99.99,,2013-02-10 23:01:00,
2013-02-10 18:07:00,32.0,20.1,30.10,North,-999,-999.0,-999.0,61,-99.99,,,-99.99,,2013-02-10 23:07:00,
2013-02-10 18:12:00,31.8,19.9,30.10,North,-999,-999.0,-999.0,61,-99.99,,,-99.99,,2013-02-10 23:12:00,
2013-02-10 18:17:00,31.8,19.9,30.10,North,-999,-999.0,-999.0,61,-99.99,,,-99.99,,2013-02-10 23:17:00,
2013-02-10 18:23:00,31.8,19.9,30.10,North,-999,-999.0,-999.0,61,-99.99,,,-99.99,,2013-02-10 23:23:00,
2013-02-10 18:28:00,32.0,20.1,30.10,North,-999,-999.0,-999.0,61,-99.99,,,-99.99,,2013-02-10 23:28:00,
2013-02-10 18:33:00,31.8,19.9,30.10,North,-999,-999.0,-999.0,61,-99.99,,,-99.99,,2013-02-10 23:33:00,
2013-02-10 18:38:00,31.6,19.8,30.10,North,-999,-999.0,-999.0,61,-99.99,,,-99.99,,2013-02-10 23:38:00,
2013-02-10 18:44:00,31.3,19.4,30.10,North,-999,-999.0,-999.0,61,-99.99,,,-99.99,,2013-02-10 23:44:00,
2013-02-10 18:49:00,31.1,19.3,30.10,North,-999,-999.0,-999.0,61,-99.99,,,-99.99,,2013-02-10 23:49:00,
2013-02-10 18:55:00,31.1,19.3,30.10,North,-999,-999.0,-999.0,61,-99.99,,,-99.99,,2013-02-10 23:55:00,
2013-02-10 19:01:00,31.1,19.3,30.10,North,-999,-999.0,-999.0,61,-99.99,,,-99.99,,2013-02-11 00:01:00,
2013-02-10 19:06:00,31.1,18.9,30.07,North,-999,-999.0,-999.0,60,-99.99,,,-99.99,,2013-02-11 00:06:00,
2013-02-10 19:12:00,31.1,18.9,30.07,North,-999,-999.0,-999.0,60,-99.99,,,-99.99,,2013-02-11 00:12:00,
2013-02-10 19:17:00,31.3,18.7,30.07,North,-999,-999.0,-999.0,59,-99.99,,,-99.99,,2013-02-11 00:17:00,
2013-02-10 19:23:00,31.1,18.5,30.07,North,-999,-999.0,-999.0,59,-99.99,,,-99.99,,2013-02-11 00:23:00,
2013-02-10 19:28:00,31.1,18.5,30.07,North,-999,-999.0,-999.0,59,-99.99,,,-99.99,,2013-02-11 00:28:00,
2013-02-10 19:33:00,30.9,18.3,30.07,North,-999,-999.0,-999.0,59,-99.99,,,-99.99,,2013-02-11 00:33:00,
2013-02-10 19:38:00,30.7,18.2,30.07,North,-999,-999.0,-999.0,59,-99.99,,,-99.99,,2013-02-11 00:38:00,
2013-02-10 19:44:00,30.7,18.2,30.07,North,-999,-999.0,-999.0,59,-99.99,,,-99.99,,2013-02-11 00:44:00,
2013-02-10 19:49:00,30.9,18.7,30.07,North,-999,-999.0,-999.0,60,-99.99,,,-99.99,,2013-02-11 00:49:00,
2013-02-10 19:54:00,30.9,18.7,30.07,North,-999,-999.0,-999.0,60,-99.99,,,-99.99,,2013-02-11 00:54:00,
2013-02-10 20:00:00,31.1,18.9,30.07,North,-999,-999.0,-999.0,60,-99.99,,,-99.99,,2013-02-11 01:00:00,
2013-02-10 20:05:00,31.1,19.3,30.07,North,-999,-999.0,-999.0,61,-99.99,,,-99.99,,2013-02-11 01:05:00,
2013-02-10 20:10:00,31.1,19.6,30.07,North,-999,-999.0,-999.0,62,-99.99,,,-99.99,,2013-02-11 01:10:00,
2013-02-10 20:16:00,31.1,19.6,30.07,North,-999,-999.0,-999.0,62,-99.99,,,-99.99,,2013-02-11 01:16:00,
2013-02-10 20:21:00,31.3,19.8,30.04,North,-999,-999.0,-999.0,62,-99.99,,,-99.99,,2013-02-11 01:21:00,
2013-02-10 20:26:00,31.3,20.2,30.04,North,-999,-999.0,-999.0,63,-99.99,,,-99.99,,2013-02-11 01:26:00,
2013-02-10 20:31:00,31.5,20.4,30.04,North,-999,-999.0,-999.0,63,-99.99,,,-99.99,,2013-02-11 01:31:00,
2013-02-10 20:37:00,31.6,20.5,30.04,North,-999,-999.0,-999.0,63,-99.99,,,-99.99,,2013-02-11 01:37:00,
2013-02-10 20:42:00,31.6,20.2,30.04,North,-999,-999.0,-999.0,62,-99.99,,,-99.99,,2013-02-11 01:42:00,
2013-02-10 20:48:00,31.8,20.3,30.04,North,-999,-999.0,-999.0,62,-99.99,,,-99.99,,2013-02-11 01:48:00,
2013-02-10 20:53:00,32.0,20.9,30.04,North,-999,-999.0,-999.0,63,-99.99,,,-99.99,,2013-02-11 01:53:00,
2013-02-10 20:58:00,32.0,20.9,30.04,North,-999,-999.0,-999.0,63,-99.99,,,-99.99,,2013-02-11 01:58:00,
2013-02-10 21:03:00,32.2,21.0,30.04,North,-999,-999.0,-999.0,63,-99.99,,,-99.99,,2013-02-11 02:03:00,
2013-02-10 21:09:00,32.2,21.0,30.04,North,-999,-999.0,-999.0,63,-99.99,,,-99.99,,2013-02-11 02:09:00,
2013-02-10 21:14:00,32.2,21.4,30.04,North,-999,-999.0,-999.0,64,-99.99,,,-99.99,,2013-02-11 02:14:00,
2013-02-10 21:19:00,32.2,21.4,30.01,North,-999,-999.0,-999.0,64,-99.99,,,-99.99,,2013-02-11 02:19:00,
2013-02-10 21:24:00,32.4,21.9,30.01,North,-999,-999.0,-999.0,65,-99.99,,,-99.99,,2013-02-11 02:24:00,
2013-02-10 21:29:00,32.4,21.9,30.01,North,-999,-999.0,-999.0,65,-99.99,,,-99.99,,2013-02-11 02:29:00,
2013-02-10 21:35:00,32.4,21.9,30.01,North,-999,-999.0,-999.0,65,-99.99,,,-99.99,,2013-02-11 02:35:00,
2013-02-10 21:40:00,32.4,22.3,30.01,North,-999,-999.0,-999.0,66,-99.99,,,-99.99,,2013-02-11 02:40:00,
2013-02-10 21:45:00,32.5,22.5,30.01,North,-999,-999.0,-999.0,66,-99.99,,,-99.99,,2013-02-11 02:45:00,
2013-02-10 21:50:00,32.5,22.5,30.01,North,-999,-999.0,-999.0,66,-99.99,,,-99.99,,2013-02-11 02:50:00,
2013-02-10 21:55:00,32.7,22.7,30.01,North,-999,-999.0,-999.0,66,-99.99,,,-99.99,,2013-02-11 02:55:00,
2013-02-10 22:01:00,32.7,22.7,30.01,North,-999,-999.0,-999.0,66,-99.99,,,-99.99,,2013-02-11 03:01:00,
2013-02-10 22:06:00,32.7,23.0,30.01,North,-999,-999.0,-999.0,67,-99.99,,,-99.99,,2013-02-11 03:06:00,
2013-02-10 22:12:00,32.7,23.0,30.01,North,-999,-999.0,-999.0,67,-99.99,,,-99.99,,2013-02-11 03:12:00,
2013-02-10 22:17:00,33.1,23.4,30.01,North,-999,-999.0,-999.0,67,-99.99,,,-99.99,,2013-02-11 03:17:00,
2013-02-10 22:22:00,33.1,23.4,29.98,North,-999,-999.0,-999.0,67,-99.99,,,-99.99,,2013-02-11 03:22:00,
2013-02-10 22:27:00,33.1,23.4,29.98,North,-999,-999.0,-999.0,67,-99.99,,,-99.99,,2013-02-11 03:27:00,
2013-02-10 22:32:00,33.1,23.4,29.98,North,-999,-999.0,-999.0,67,-99.99,,,-99.99,,2013-02-11 03:32:00,
2013-02-10 22:38:00,33.3,23.5,29.98,North,-999,-999.0,-999.0,67,-99.99,,,-99.99,,2013-02-11 03:38:00,
2013-02-10 22:43:00,33.3,23.5,29.98,North,-999,-999.0,-999.0,67,-99.99,,,-99.99,,2013-02-11 03:43:00,
2013-02-10 22:48:00,33.3,23.5,29.98,North,-999,-999.0,-999.0,67,-99.99,,,-99.99,,2013-02-11 03:48:00,
2013-02-10 22:54:00,33.3,23.9,29.98,North,-999,-999.0,-999.0,68,-99.99,,,-99.99,,2013-02-11 03:54:00,
2013-02-10 22:59:00,33.4,24.0,29.98,North,-999,-999.0,-999.0,68,-99.99,,,-99.99,,2013-02-11 03:59:00,
2013-02-10 23:04:00,33.4,24.0,29.95,North,-999,-999.0,-999.0,68,-99.99,,,-99.99,,2013-02-11 04:04:00,
2013-02-10 23:09:00,33.6,24.2,29.95,North,-999,-999.0,-999.0,68,-99.99,,,-99.99,,2013-02-11 04:09:00,
2013-02-10 23:15:00,33.6,23.9,29.95,North,-999,-999.0,-999.0,67,-99.99,,,-99.99,,2013-02-11 04:15:00,
2013-02-10 23:20:00,33.8,24.0,29.98,North,-999,-999.0,-999.0,67,-99.99,,,-99.99,,2013-02-11 04:20:00,
2013-02-10 23:26:00,33.8,23.7,29.98,North,-999,-999.0,-999.0,66,-99.99,,,-99.99,,2013-02-11 04:26:00,
2013-02-10 23:31:00,34.0,23.5,29.98,North,-999,-999.0,-999.0,65,-99.99,,,-99.99,,2013-02-11 04:31:00,
2013-02-10 23:36:00,34.2,23.3,29.95,North,-999,-999.0,-999.0,64,-99.99,,,-99.99,,2013-02-11 04:36:00,
2013-02-10 23:41:00,34.2,23.3,29.95,North,-999,-999.0,-999.0,64,-99.99,,,-99.99,,2013-02-11 04:41:00,
2013-02-10 23:46:00,34.3,23.1,29.95,North,-999,-999.0,-999.0,63,-99.99,,,-99.99,,2013-02-11 04:46:00,
2013-02-10 23:52:00,34.3,23.1,29.95,North,-999,-999.0,-999.0,63,-99.99,,,-99.99,,2013-02-11 04:52:00,
2013-02-10 23:57:00,34.3,23.1,29.95,North,-999,-999.0,-999.0,63,-99.99,,,-99.99,,2013-02-11 04:57:00,